Dewpoint
6 6 5 5 6 7 8 8 8 8 8 8 8 8 8 8 8 7 7 7 6 5 4 1 -2 -3 -4 3 7 7 7 6 6 7 8 8 8 8 8 10 10 11
6 5 5 5 6 7 8 8 8 8 8 8 8 8 8 7 7 7 7 7 6 5 3 -1 -2 -4 -3 5 8 7 6 6 7 7 7 7 7 7 7 8 9 10
6 5 4 4 5 6 8 8 8 8 8 8 7 7 7 7 7 7 7 6 5 4 1 -4 -3 -4 -2 6 7 6 6 6 6 7 6 6 6 6 6 6 6 7
5 5 4 4 4 6 7 8 7 7 7 7 7 7 7 7 7 7 6 5 4 3 -2 -8 -6 -5 -0 6 7 6 6 6 6 6 6 6 5 5 5 5 5 4
5 4 3 3 3 4 6 6 6 6 6 6 6 6 6 7 6 6 5 4 3 1 -5 -12 -9 -5 1 6 7 6 6 6 6 6 5 5 4 4 4 4 4 4
5 4 3 2 1 2 3 3 4 4 5 5 6 6 6 6 5 5 4 3 1 -3 -9 -14 -9 -3 4 6 6 6 6 6 6 5 5 5 4 3 4 5 6 6
5 4 3 1 0 0 0 1 2 3 4 5 6 6 5 5 4 4 3 0 -4 -7 -10 -12 -6 2 6 7 6 6 6 6 6 5 5 4 3 2 3 5 6 6
5 4 1 -0 -1 -1 -1 -0 2 4 4 5 5 4 4 4 3 3 2 -3 -6 -3 -5 -6 0 5 7 7 6 6 6 6 5 5 4 3 2 1 2 3 4 4
4 3 0 -1 -1 -1 -0 0 2 3 3 3 3 3 3 3 2 2 -1 -7 -5 1 1 -0 4 7 6 6 6 6 5 5 4 3 3 3 3 3 3 3 3 2
4 1 -1 -1 0 1 1 1 2 2 2 2 3 3 2 2 1 -1 -4 -10 -4 3 4 4 6 6 6 6 5 5 4 3 3 3 3 3 4 4 4 3 3 2
3 1 0 0 1 2 1 1 2 3 3 3 3 3 2 1 -1 -5 -8 -11 -6 1 4 5 5 6 5 5 4 4 2 2 3 4 3 4 4 4 3 3 2 1
4 2 2 1 1 2 1 1 3 3 3 3 2 1 0 -0 -1 -4 -7 -11 -11 -2 3 4 4 5 5 4 4 3 1 0 1 3 3 3 3 2 2 0 -1 -0
5 4 3 2 2 2 2 2 3 3 3 3 1 -0 1 1 1 1 -1 -5 -10 -8 -2 1 2 2 4 4 3 3 2 1 -0 1 2 1 1 0 -2 -5 -3 -2
6 5 5 4 3 3 2 3 3 3 3 3 1 0 2 2 3 3 3 1 -2 -5 -6 -3 -3 -2 1 3 2 3 3 2 0 1 1 -0 -0 -2 -6 -8 -5 -3
6 6 5 5 4 3 3 3 3 3 4 3 -0 0 2 2 3 3 3 3 3 1 -1 -2 -3 -3 -1 1 2 3 3 3 2 1 0 -1 -1 -1 -3 -6 -6 -5
6 6 6 6 5 5 4 3 3 3 3 1 -1 0 2 2 2 2 3 3 4 3 1 1 -0 -1 -1 -1 0 1 2 3 2 1 1 -0 -2 -1 0 -2 -4 -5
7 6 6 6 6 6 5 3 3 3 3 1 -0 1 2 2 2 2 2 3 4 4 3 1 1 1 0 -0 -0 -0 0 1 1 1 1 1 -1 -1 0 0 -1 -3
7 7 7 6 6 6 6 5 3 3 2 2 1 2 2 2 2 3 3 3 4 4 3 2 2 1 1 1 0 -0 -1 -1 -1 -0 1 1 -0 -1 -0 0 0 -1
7 7 7 7 6 6 6 6 4 2 2 2 2 2 3 3 3 3 4 4 4 4 4 4 3 2 2 2 1 1 0 -1 -1 -1 -0 0 0 -1 -1 0 1 0
7 7 7 7 7 6 6 6 4 3 2 2 3 3 3 3 4 4 4 4 4 4 4 4 4 3 3 2 2 2 1 0 -1 -2 -2 -1 0 -1 -1 -1 1 0
7 7 7 7 6 5 5 5 4 3 2 2 3 3 3 4 4 4 4 4 4 4 4 4 4 4 4 4 3 3 2 1 -0 -2 -3 -1 -0 -0 -1 -1 -1 -0
6 6 6 5 4 4 4 4 4 3 3 2 3 3 3 3 4 4 4 4 4 4 4 4 4 4 4 4 4 4 4 3 1 -1 -3 -3 -1 -0 0 -1 -2 -1
4 4 3 3 3 3 3 3 3 3 3 2 2 3 3 3 4 4 4 4 4 4 3 4 4 4 4 5 4 4 4 4 2 -1 -3 -4 -3 -1 0 -1 -1 -0
3 3 3 3 3 3 3 3 4 4 3 3 2 3 3 3 3 4 4 4 4 3 3 3 3 4 4 5 5 4 4 5 4 1 -3 -6 -5 -2 -0 -0 -1 0
4 3 3 3 3 3 3 4 4 4 4 4 3 3 3 4 4 4 4 4 4 3 3 3 3 4 4 4 5 5 4 5 5 3 -2 -5 -5 -3 -2 -1 -0 1
4 3 3 3 3 4 4 4 4 4 4 4 3 3 3 3 3 3 4 4 4 3 3 3 3 4 4 4 4 5 5 4 5 4 0 -4 -5 -4 -3 -1 0 0
Wind_Speed
12 12 13 12 11 10 10 10 11 12 12 12 12 12 12 13 13 15 16 18 19 20 20 19 17 14 10 5 4 5 6 6 6 6 6 6 6 6 5 5 5 6
12 13 14 13 12 11 10 10 10 11 10 10 11 11 12 12 13 15 16 18 20 21 22 19 14 12 8 3 2 4 5 5 5 4 5 6 6 5 5 5 5 5
13 14 14 13 12 11 10 10 10 10 9 10 10 11 11 12 13 14 16 18 20 22 23 18 11 9 7 3 2 3 4 5 4 5 6 7 7 7 7 7 7 7
13 14 14 13 12 11 9 9 9 9 9 9 9 10 10 11 13 14 16 19 21 23 23 16 8 6 5 3 3 3 4 5 5 5 7 9 10 10 10 10 10 10
14 14 14 13 11 9 8 8 9 9 9 9 8 8 9 10 12 14 17 21 23 24 21 14 7 5 4 4 3 3 4 5 6 7 9 10 11 11 11 11 11 11
14 14 14 13 11 10 10 9 9 9 9 8 7 7 8 10 13 16 20 23 23 21 18 12 7 5 5 4 3 3 4 6 7 8 10 10 11 12 11 10 10 10
14 14 14 13 12 13 13 12 12 12 10 9 8 9 11 13 16 19 22 22 20 18 16 11 8 7 7 6 4 4 5 6 8 9 10 11 12 13 11 11 11 10
14 14 14 13 14 15 15 15 14 14 12 11 11 12 14 16 18 20 21 20 16 15 15 12 10 10 9 7 7 7 7 9 10 11 13 13 14 13 13 13 13 13
14 14 13 14 15 17 17 16 15 13 12 12 13 14 14 16 18 18 19 18 15 14 15 14 13 12 10 9 9 9 10 11 12 13 13 13 14 14 14 15 15 15
13 12 12 14 16 18 17 16 16 16 15 14 14 14 14 15 16 17 18 17 15 13 14 15 14 13 11 10 11 11 12 13 13 14 14 14 14 14 15 16 17 16
12 13 13 14 16 17 17 17 19 20 19 17 16 15 15 16 17 18 19 19 16 13 13 14 14 13 12 12 12 13 15 15 14 14 14 13 12 13 14 15 16 15
12 14 15 15 15 15 16 18 19 20 19 18 17 16 17 18 20 22 23 22 18 13 11 12 13 13 12 13 14 15 17 17 15 14 13 12 13 13 14 15 14 13
11 14 15 15 14 14 15 17 18 18 18 17 17 17 19 21 24 27 28 26 23 17 13 12 12 13 13 14 15 16 17 18 17 15 14 14 15 15 15 14 13 12
10 12 13 14 14 13 14 15 16 16 16 16 16 17 19 21 24 27 28 28 27 23 18 15 14 15 15 14 15 16 17 19 19 17 16 17 16 16 17 16 14 13
9 11 12 13 13 13 13 14 14 14 14 14 15 16 18 19 21 23 25 26 26 25 23 21 19 18 17 15 15 16 18 19 19 18 17 17 17 17 18 18 16 14
8 9 10 11 12 12 12 12 13 14 13 12 14 15 16 17 18 20 21 23 24 24 24 24 23 22 19 17 16 17 17 18 19 19 17 17 17 17 17 18 17 15
7 7 8 10 10 11 11 11 11 12 12 11 12 13 13 14 16 17 19 20 21 22 23 24 24 24 21 19 18 17 17 17 18 18 17 16 16 15 14 15 16 15
4 5 7 8 9 9 10 9 9 10 10 10 10 11 12 13 14 15 17 18 18 19 20 22 23 23 23 22 21 20 19 18 18 17 17 16 16 15 13 12 13 14
2 3 5 6 7 8 8 8 8 8 8 8 9 10 11 12 13 14 15 15 16 17 18 19 20 22 23 23 22 21 20 19 18 17 17 16 15 14 12 10 11 12
2 1 3 5 5 6 5 6 6 7 7 7 7 8 9 10 11 12 13 13 14 15 15 16 18 19 21 22 23 22 21 21 20 18 17 15 14 13 12 10 9 10
4 3 2 3 4 4 4 4 4 5 6 6 6 7 8 9 10 11 12 12 12 13 13 14 15 17 19 21 22 23 22 21 21 20 18 15 12 12 11 11 10 9
6 5 4 3 3 3 3 3 3 4 4 4 4 6 7 8 9 9 10 11 11 12 12 12 13 14 16 18 20 22 23 22 22 22 20 16 12 10 11 12 11 9
8 6 5 4 3 3 3 3 3 3 3 2 3 4 6 7 8 8 9 10 11 11 12 12 12 13 14 16 18 20 22 23 22 23 22 18 12 10 10 11 11 9
7 5 4 3 2 3 4 5 5 4 3 3 3 5 6 7 7 8 8 9 10 10 11 12 12 12 13 14 16 18 20 22 22 23 23 19 13 9 10 10 9 9
5 4 4 4 3 3 4 5 5 5 4 5 5 6 7 7 8 8 8 9 10 10 11 12 12 12 13 13 14 16 18 21 22 22 23 20 14 11 10 9 8 8
5 5 5 5 4 4 4 5 5 6 6 6 6 7 8 8 9 9 9 9 10 11 11 12 13 13 13 14 14 14 16 19 20 21 21 20 16 13 10 7 7 10
Wind_Direction
45 38 33 30 27 22 16 13 12 10 8 6 2 359 357 352 347 343 340 340 340 341 346 348 348 348 342 328 320 326 335 336 332 337 338 336 347 356 351 349 347 342
39 34 30 26 24 21 18 16 13 10 9 5 0 357 352 345 341 339 338 340 340 344 350 352 348 348 352 355 350 341 341 344 344 350 343 335 339 342 342 345 343 338
37 31 27 24 22 21 19 14 7 8 8 3 358 354 348 343 339 338 338 340 342 347 354 356 351 352 3 38 37 4 351 349 352 350 340 332 331 330 328 329 328 328
33 28 26 24 21 17 13 6 2 6 4 359 357 352 346 341 338 339 343 344 346 352 358 359 0 8 23 58 51 18 356 352 353 346 336 331 331 329 327 325 322 319
28 27 26 23 19 13 4 1 4 7 5 1 358 353 347 343 343 347 349 348 350 357 2 4 14 39 52 68 53 18 358 351 349 342 333 332 335 337 336 333 330 327
24 24 24 21 20 17 13 16 19 19 16 10 3 0 358 355 354 354 354 354 356 2 8 15 35 60 66 69 48 10 357 348 345 342 339 343 347 347 345 342 342 342
22 24 24 24 27 28 28 32 36 38 34 23 15 12 9 5 1 359 359 2 5 10 18 33 55 64 64 62 44 18 6 358 355 353 351 353 352 347 344 341 339 339
28 28 27 28 32 35 37 39 41 43 38 28 21 16 11 8 4 2 4 10 17 22 30 46 62 65 63 55 42 28 17 9 2 357 354 352 352 351 348 345 343 342
33 31 31 33 36 38 39 39 39 38 32 26 24 18 14 11 8 8 10 17 29 35 38 51 62 65 62 50 39 29 16 9 2 359 359 360 359 358 354 350 350 350
39 41 41 41 43 41 39 42 48 49 45 41 37 32 30 26 20 19 19 24 36 43 45 54 63 63 56 43 33 24 15 11 10 11 13 12 7 1 355 351 351 353
52 53 51 49 49 44 44 56 62 59 56 55 53 49 47 42 35 31 29 31 38 45 48 55 60 58 48 37 29 22 18 18 21 22 20 15 7 358 351 347 348 353
61 58 55 54 52 49 53 64 65 59 56 56 56 57 56 52 48 44 40 37 39 44 46 50 53 51 42 32 24 19 17 18 22 23 19 13 4 357 352 349 351 358
62 59 56 54 56 55 57 59 57 55 55 53 55 60 61 59 56 52 47 43 43 45 45 44 46 46 40 27 18 14 13 15 19 23 22 16 11 9 9 9 11 12
62 57 56 56 56 57 58 56 52 51 51 51 58 65 66 63 60 55 51 48 47 48 48 46 44 44 38 23 13 11 10 11 15 20 22 22 23 25 28 31 31 25
63 57 57 58 55 54 58 59 55 52 49 52 64 69 67 63 59 55 52 49 48 48 50 49 46 43 36 24 15 11 8 7 10 14 19 22 28 34 36 36 36 33
61 56 58 58 54 52 55 57 57 56 54 60 69 69 65 60 55 51 49 47 46 45 46 47 47 45 39 30 23 16 10 6 6 10 15 18 25 35 38 36 35 35
57 53 54 56 53 50 51 55 59 59 60 66 70 67 63 58 52 47 46 45 44 42 41 42 44 45 42 38 33 27 19 13 8 8 11 12 17 28 37 36 34 34
54 46 45 47 48 47 46 51 59 63 64 66 67 65 61 55 48 45 44 43 42 40 39 38 40 41 41 39 38 34 29 22 15 11 11 9 10 18 30 35 34 33
64 39 37 36 38 43 43 46 58 67 68 67 65 63 59 53 47 44 43 42 40 38 37 35 35 36 37 37 36 35 32 27 21 16 13 10 6 10 20 27 27 29
136 78 38 27 30 40 42 46 60 71 72 70 65 60 56 50 45 40 39 38 36 35 34 33 31 30 31 32 32 31 30 26 22 18 15 11 6 2 6 10 11 20
140 119 59 33 40 50 53 59 73 78 75 72 66 59 52 45 40 35 33 31 29 29 30 30 29 26 25 26 27 26 25 22 19 15 11 9 4 358 353 352 358 16
113 104 88 78 74 68 66 76 93 90 81 75 64 53 44 39 34 27 26 25 23 23 25 26 25 23 20 20 20 21 21 18 14 10 6 2 357 352 346 345 354 14
98 93 90 88 78 70 75 86 96 93 80 63 41 30 27 27 21 15 15 17 17 17 19 20 20 18 16 13 14 16 16 15 11 6 2 358 352 347 344 345 355 13
91 91 93 97 91 87 89 86 81 75 58 37 20 10 10 8 3 2 0 1 7 10 11 12 12 12 11 8 8 11 12 12 10 5 1 0 358 349 345 349 1 14
89 86 97 112 115 106 95 80 67 60 47 31 17 8 4 359 354 353 349 346 352 357 0 2 3 5 5 3 2 5 7 9 8 4 2 3 3 359 356 359 9 13
87 81 95 108 110 103 89 69 56 51 40 28 19 13 9 3 355 352 348 342 339 342 349 353 354 356 358 357 356 357 360 3 4 3 3 4 6 7 9 12 12 10
Height
1553 1552 1551 1549 1548 1547 1546 1546 1545 1544 1543 1542 1542 1541 1541 1540 1539 1538 1537 1536 1534 1533 1531 1529 1528 1526 1526 1525 1525 1525 1525 1525 1524 1524 1523 1523 1522 1522 1521 1521 1520 1519
1553 1552 1550 1549 1548 1547 1546 1545 1544 1543 1543 1542 1542 1541 1541 1540 1539 1538 1537 1535 1534 1532 1531 1529 1527 1526 1525 1525 1526 1526 1525 1525 1525 1524 1524 1523 1522 1522 1521 1520 1520 1519
1553 1552 1550 1549 1548 1546 1546 1545 1544 1543 1543 1542 1542 1542 1541 1540 1539 1537 1536 1535 1534 1532 1530 1528 1526 1526 1525 1525 1526 1526 1526 1525 1525 1525 1524 1523 1523 1522 1521 1520 1520 1519
1553 1552 1550 1549 1547 1546 1546 1545 1544 1544 1543 1543 1542 1542 1541 1540 1539 1537 1536 1535 1533 1532 1529 1527 1526 1526 1526 1526 1526 1527 1526 1526 1525 1525 1524 1523 1523 1522 1521 1520 1519 1518
1553 1552 1550 1549 1547 1546 1546 1545 1544 1544 1543 1543 1542 1541 1540 1540 1539 1537 1536 1535 1533 1531 1529 1527 1526 1526 1527 1527 1527 1527 1527 1526 1526 1525 1525 1524 1523 1522 1521 1520 1519 1518
1553 1551 1550 1548 1547 1546 1545 1544 1544 1544 1543 1543 1542 1541 1541 1540 1539 1538 1537 1535 1532 1531 1529 1528 1527 1527 1528 1528 1528 1528 1528 1527 1527 1526 1525 1524 1523 1522 1521 1519 1518 1517
1552 1551 1549 1548 1547 1546 1545 1544 1544 1544 1543 1543 1542 1542 1541 1540 1539 1538 1537 1535 1533 1531 1530 1528 1528 1528 1529 1529 1529 1529 1528 1528 1527 1526 1525 1524 1523 1522 1520 1519 1518 1517
1552 1551 1549 1549 1547 1546 1546 1545 1544 1544 1544 1544 1543 1543 1542 1541 1540 1539 1537 1535 1533 1532 1530 1530 1530 1530 1530 1530 1530 1529 1529 1528 1527 1526 1525 1524 1523 1521 1520 1519 1517 1516
1552 1551 1550 1549 1548 1547 1546 1546 1545 1545 1545 1545 1544 1543 1543 1542 1540 1539 1538 1536 1534 1533 1532 1531 1531 1531 1531 1531 1530 1530 1529 1528 1527 1526 1525 1524 1522 1521 1520 1518 1517 1516
1553 1552 1551 1550 1549 1548 1547 1547 1546 1546 1546 1545 1545 1544 1544 1543 1541 1540 1538 1537 1535 1534 1534 1533 1533 1533 1532 1532 1531 1531 1530 1529 1528 1526 1525 1524 1522 1521 1519 1518 1516 1515
1554 1553 1552 1551 1550 1549 1548 1548 1548 1547 1547 1546 1546 1545 1544 1544 1542 1541 1539 1537 1536 1535 1535 1535 1534 1534 1534 1533 1532 1531 1530 1529 1528 1527 1526 1524 1523 1521 1520 1518 1516 1515
1555 1554 1553 1552 1551 1551 1550 1550 1549 1549 1548 1548 1547 1546 1546 1545 1543 1542 1540 1538 1537 1536 1536 1536 1536 1535 1535 1534 1533 1532 1531 1530 1529 1527 1526 1525 1523 1521 1520 1518 1516 1515
1555 1555 1554 1553 1553 1552 1552 1551 1551 1550 1550 1549 1548 1548 1547 1546 1545 1543 1542 1540 1539 1538 1538 1537 1537 1536 1536 1535 1534 1533 1532 1531 1529 1528 1527 1525 1523 1522 1520 1518 1517 1516
1556 1556 1555 1554 1554 1553 1553 1552 1552 1552 1551 1550 1550 1549 1548 1547 1546 1545 1544 1543 1541 1540 1540 1539 1538 1537 1536 1536 1535 1534 1533 1532 1530 1529 1527 1526 1524 1522 1521 1519 1518 1517
1556 1556 1556 1555 1555 1555 1554 1554 1553 1553 1552 1552 1551 1550 1550 1549 1548 1547 1546 1545 1544 1543 1542 1541 1540 1538 1537 1537 1536 1535 1534 1532 1531 1530 1528 1527 1525 1523 1522 1520 1519 1518
1557 1557 1557 1556 1556 1556 1555 1555 1554 1554 1553 1553 1552 1551 1551 1550 1550 1549 1548 1547 1546 1545 1544 1542 1541 1540 1539 1538 1537 1536 1535 1533 1532 1531 1529 1528 1526 1524 1523 1522 1520 1519
1557 1557 1558 1557 1557 1557 1556 1556 1555 1555 1554 1554 1553 1553 1552 1552 1551 1550 1549 1548 1547 1546 1545 1544 1543 1541 1540 1539 1538 1537 1536 1534 1533 1531 1530 1529 1527 1526 1524 1523 1521 1520
1558 1558 1558 1558 1558 1557 1557 1557 1556 1556 1555 1555 1554 1554 1553 1553 1552 1551 1551 1550 1549 1548 1547 1545 1544 1543 1542 1541 1539 1538 1537 1535 1534 1532 1531 1530 1528 1526 1525 1524 1522 1521
1558 1558 1558 1558 1558 1558 1558 1557 1557 1557 1556 1556 1555 1555 1554 1554 1553 1552 1552 1551 1550 1549 1548 1547 1546 1545 1543 1542 1541 1539 1538 1536 1535 1533 1532 1530 1529 1527 1526 1525 1523 1522
1558 1559 1559 1559 1559 1558 1558 1558 1558 1558 1557 1557 1556 1556 1555 1555 1554 1553 1552 1552 1551 1550 1549 1548 1547 1546 1544 1543 1542 1540 1539 1537 1535 1534 1532 1531 1529 1528 1527 1525 1524 1523
1558 1559 1559 1559 1559 1559 1558 1558 1558 1558 1558 1558 1557 1556 1556 1555 1554 1554 1553 1552 1552 1551 1550 1549 1548 1547 1545 1544 1542 1541 1539 1538 1536 1534 1533 1532 1530 1529 1527 1526 1525 1524
1558 1559 1559 1559 1559 1559 1559 1559 1559 1558 1558 1558 1557 1557 1556 1556 1555 1554 1554 1553 1552 1551 1550 1549 1548 1547 1546 1545 1543 1542 1540 1538 1536 1535 1533 1531 1530 1529 1528 1527 1526 1525
1559 1559 1559 1559 1559 1559 1559 1559 1559 1559 1558 1558 1558 1557 1557 1556 1555 1555 1554 1553 1552 1552 1551 1550 1549 1548 1547 1545 1544 1542 1541 1539 1537 1535 1533 1531 1530 1529 1528 1527 1526 1526
1560 1560 1560 1560 1560 1560 1560 1560 1559 1559 1559 1558 1558 1557 1557 1556 1556 1555 1555 1554 1553 1552 1551 1550 1549 1548 1547 1546 1545 1543 1542 1540 1538 1536 1534 1532 1530 1529 1528 1528 1527 1527
1560 1560 1560 1560 1560 1560 1560 1560 1560 1560 1559 1559 1558 1558 1557 1557 1556 1555 1555 1554 1553 1552 1551 1550 1549 1548 1547 1546 1545 1544 1542 1540 1539 1537 1535 1532 1531 1530 1529 1528 1528 1527
1561 1561 1561 1561 1561 1561 1561 1561 1560 1560 1559 1559 1558 1558 1557 1557 1556 1555 1555 1554 1553 1552 1551 1550 1549 1548 1547 1546 1545 1544 1542 1541 1539 1537 1535 1533 1532 1530 1530 1529 1529 1528